Simultaneous Nadir Overpasses (SNOs) Predictions

Prediction of SNOs between METOP-B and NOAA-19 Satellite Orbit:

Table of predicted SNOs for the next 14.0 days since TLE Epoch: 12/14/2024
Index Date (METOP-B) Time (METOP-B) Lat,Lon (METOP-B) SZA (METOP-B ) Date (NOAA-19) Time (NOAA-19) Lat,Lon (NOAA-19) SZA (NOAA-19 ) Distance(km) Time Diff (sec)
1 12/15/2024 13:52:36 79.92, 52.77 111.54 12/15/2024 13:51:41 79.93, 52.63 111.48 2.98 55
2 12/15/2024 14:43:15 -79.88,-139.52 68.40 12/15/2024 14:42:33 -79.88,-139.57 68.44 1.07 42
3 12/15/2024 15:33:55 79.82, 28.31 111.68 12/15/2024 15:33:34 79.82, 28.37 111.67 1.28 21
4 12/15/2024 16:24:34 -79.78,-163.99 68.27 12/15/2024 16:24:26 -79.77,-163.84 68.25 3.14 8
5 12/15/2024 17:15:15 79.76, 3.55 111.77 12/15/2024 17:15:29 79.76, 3.50 111.77 1.10 14
6 12/15/2024 18:05:54 -79.72, 171.24 68.18 12/15/2024 18:06:21 -79.71, 171.28 68.16 0.79 27
7 12/15/2024 18:56:34 79.66, -20.94 111.90 12/15/2024 18:57:22 79.65, -20.80 111.96 3.15 48
8 12/15/2024 19:47:13 -79.62, 146.74 68.05 12/15/2024 19:48:15 -79.62, 146.68 68.02 1.58 62
9 12/27/2024 20:41:11 -80.09, 128.83 69.01 12/27/2024 20:40:09 -80.09, 128.92 69.04 1.91 62
10 12/27/2024 21:31:52 80.08, -63.76 111.00 12/27/2024 21:31:09 80.08, -63.67 110.98 1.99 43
11 12/27/2024 22:22:31 -80.03, 104.08 68.94 12/27/2024 22:22:04 -80.04, 104.07 68.96 0.42 27
12 12/27/2024 23:13:11 79.99, -88.20 111.12 12/27/2024 23:13:03 80.00, -88.21 111.12 0.46 8
13 12/28/2024 00:03:51 -79.97, 79.33 68.86 12/28/2024 00:03:59 -79.98, 79.21 68.87 2.69 8
14 12/28/2024 00:54:30 79.93,-112.95 111.20 12/28/2024 00:54:57 79.95,-113.07 111.20 2.70 27
15 12/28/2024 01:45:10 -79.91, 54.57 68.78 12/28/2024 01:45:52 -79.91, 54.65 68.74 1.57 42



Historial Predications of SNOs between METOP-B and NOAA-19
